When you browse on this site, cookies collect data to enhance your experience and personalize the content and advertising you see.
Visit our Privacy Policy to learn more. By continuing to use the site, you agree to this use of cookies and data.
  • en France
  • Liste des pays
  • À 7 jours
  • Température de l'eau
  • Carte satellitaire
  • Carte météo
  • Widgets météo
  • user-avatar
    Se connecter

    Météo par heure à Zirani

    Ce jour, 24 Janvier, Jeudi

    Heure Température Précipitation Vent Pression Humidité
    00:00 +3°C° 0 mm 2 m/s 715 mmHg 66%
    01:00 +3°C° 0 mm 2 m/s 714 mmHg 64%
    02:00 +3°C° 0 mm 2 m/s 714 mmHg 62%
    03:00 +3°C° 0 mm 3 m/s 714 mmHg 55%
    04:00 +2°C° 0 mm 3 m/s 714 mmHg 56%
    05:00 +3°C° 0 mm 2 m/s 713 mmHg 58%
    06:00 +3°C° 0 mm 2 m/s 713 mmHg 59%
    07:00 +3°C° 0 mm 2 m/s 713 mmHg 56%
    08:00 +5°C° 0 mm 1 m/s 713 mmHg 52%
    09:00 +6°C° 0 mm 1 m/s 713 mmHg 49%
    10:00 +7°C° 0 mm 1 m/s 713 mmHg 46%
    11:00 +9°C° 0 mm 1 m/s 713 mmHg 43%
    12:00 +10°C° 0 mm 1 m/s 713 mmHg 40%
    13:00 +10°C° 0 mm 1 m/s 712 mmHg 42%
    14:00 +11°C° 0 mm 1 m/s 712 mmHg 44%
    15:00 +11°C° 0 mm 1 m/s 711 mmHg 46%
    16:00 +10°C° 0 mm 1 m/s 711 mmHg 48%
    17:00 +7°C° 0 mm 2 m/s 711 mmHg 51%
    18:00 +6°C° 0 mm 2 m/s 711 mmHg 53%
    19:00 +5°C° 0 mm 3 m/s 710 mmHg 50%
    20:00 +5°C° 0 mm 3 m/s 710 mmHg 46%
    21:00 +4°C° 0 mm 3 m/s 709 mmHg 43%
    22:00 +4°C° 0 mm 3 m/s 709 mmHg 42%
    23:00 +4°C° 0 mm 3 m/s 709 mmHg 41%

    Demain, 25 Janvier, Vendredi

    Heure Température Précipitation Vent Pression Humidité
    00:00 +4°C° 0 mm 3 m/s 709 mmHg 40%
    01:00 +4°C° 0 mm 3 m/s 709 mmHg 41%
    02:00 +4°C° 0 mm 3 m/s 709 mmHg 41%
    03:00 +5°C° 0 mm 3 m/s 709 mmHg 42%
    04:00 +5°C° 0 mm 3 m/s 709 mmHg 42%
    05:00 +5°C° 0 mm 3 m/s 709 mmHg 43%
    06:00 +6°C° 0 mm 2 m/s 709 mmHg 44%
    07:00 +6°C° 0 mm 2 m/s 709 mmHg 43%
    08:00 +7°C° 0 mm 2 m/s 709 mmHg 43%
    09:00 +7°C° 0 mm 2 m/s 709 mmHg 43%
    10:00 +9°C° 0 mm 2 m/s 709 mmHg 41%
    11:00 +10°C° 0 mm 2 m/s 709 mmHg 39%
    12:00 +12°C° 0 mm 2 m/s 709 mmHg 37%
    13:00 +12°C° 0 mm 2 m/s 710 mmHg 40%
    14:00 +10°C° 0 mm 2 m/s 710 mmHg 43%
    15:00 +10°C° 0 mm 2 m/s 710 mmHg 47%
    16:00 +9°C° 0 mm 2 m/s 710 mmHg 49%
    17:00 +7°C° 0 mm 2 m/s 711 mmHg 52%
    18:00 +6°C° 0 mm 2 m/s 711 mmHg 55%
    19:00 +6°C° 0 mm 2 m/s 712 mmHg 52%
    20:00 +5°C° 0 mm 2 m/s 712 mmHg 50%
    21:00 +5°C° 0 mm 2 m/s 712 mmHg 48%
    22:00 +5°C° 0 mm 2 m/s 712 mmHg 45%
    23:00 +5°C° 0 mm 2 m/s 713 mmHg 42%

    Après-demain, 26 Janvier, Samedi

    Heure Température Précipitation Vent Pression Humidité
    00:00 +5°C° 0 mm 2 m/s 713 mmHg 40%
    01:00 +6°C° 0 mm 1 m/s 713 mmHg 39%
    02:00 +5°C° 0 mm 1 m/s 713 mmHg 39%
    03:00 +5°C° 0 mm 1 m/s 713 mmHg 39%
    04:00 +5°C° 0 mm 1 m/s 713 mmHg 40%
    05:00 +5°C° 0 mm 1 m/s 713 mmHg 41%
    06:00 +4°C° 0 mm 0 m/s 713 mmHg 43%
    07:00 +6°C° 0 mm 1 m/s 713 mmHg 40%
    08:00 +7°C° 0 mm 1 m/s 713 mmHg 38%
    09:00 +7°C° 0 mm 1 m/s 714 mmHg 36%
    10:00 +9°C° 0 mm 1 m/s 713 mmHg 35%
    11:00 +9°C° 0 mm 2 m/s 713 mmHg 34%
    12:00 +10°C° 0 mm 2 m/s 712 mmHg 32%
    13:00 +10°C° 0 mm 2 m/s 712 mmHg 37%
    14:00 +10°C° 0 mm 2 m/s 711 mmHg 42%
    15:00 +10°C° 0 mm 2 m/s 711 mmHg 47%
    16:00 +8°C° 0 mm 2 m/s 711 mmHg 51%
    17:00 +7°C° 0 mm 2 m/s 711 mmHg 54%
    18:00 +6°C° 0 mm 2 m/s 711 mmHg 57%
    19:00 +6°C° 0 mm 2 m/s 710 mmHg 56%
    20:00 +6°C° 0 mm 2 m/s 710 mmHg 55%
    21:00 +5°C° 0 mm 2 m/s 710 mmHg 54%
    22:00 +5°C° 0 mm 2 m/s 710 mmHg 54%
    23:00 +5°C° 0 mm 2 m/s 710 mmHg 53%

    27 Janvier, Dimanche

    Heure Température Précipitation Vent Pression Humidité
    00:00 +5°C° 0 mm 2 m/s 709 mmHg 53%
    01:00 +5°C° 0 mm 2 m/s 709 mmHg 53%
    02:00 +5°C° 0 mm 2 m/s 709 mmHg 53%
    03:00 +5°C° 0 mm 2 m/s 709 mmHg 54%
    04:00 +6°C° 0 mm 2 m/s 709 mmHg 54%
    05:00 +6°C° 0 mm 2 m/s 709 mmHg 54%
    06:00 +6°C° 0 mm 2 m/s 708 mmHg 55%
    07:00 +7°C° 0 mm 2 m/s 709 mmHg 53%
    08:00 +7°C° 0 mm 2 m/s 709 mmHg 51%
    09:00 +8°C° 0 mm 2 m/s 709 mmHg 50%
    10:00 +10°C° 0 mm 2 m/s 708 mmHg 47%
    11:00 +12°C° 0 mm 2 m/s 708 mmHg 43%
    12:00 +14°C° 0 mm 2 m/s 708 mmHg 40%
    13:00 +14°C° 0 mm 2 m/s 707 mmHg 42%
    14:00 +14°C° 0 mm 2 m/s 707 mmHg 43%
    15:00 +14°C° 0 mm 2 m/s 706 mmHg 45%
    16:00 +11°C° 0 mm 3 m/s 706 mmHg 49%
    17:00 +10°C° 0 mm 3 m/s 706 mmHg 53%
    18:00 +8°C° 0 mm 3 m/s 706 mmHg 58%
    19:00 +8°C° 0 mm 3 m/s 706 mmHg 58%
    20:00 +8°C° 0 mm 3 m/s 706 mmHg 58%
    21:00 +8°C° 0 mm 3 m/s 706 mmHg 57%
    22:00 +8°C° 0 mm 3 m/s 706 mmHg 58%
    23:00 +7°C° 0 mm 3 m/s 706 mmHg 59%

    28 Janvier, Lundi

    Heure Température Précipitation Vent Pression Humidité
    00:00 +7°C° 0 mm 3 m/s 706 mmHg 59%
    01:00 +7°C° 0 mm 3 m/s 706 mmHg 60%
    02:00 +7°C° 0 mm 3 m/s 707 mmHg 60%
    03:00 +7°C° 0 mm 3 m/s 707 mmHg 60%
    04:00 +7°C° 0 mm 2 m/s 708 mmHg 61%
    05:00 +6°C° 0 mm 2 m/s 708 mmHg 62%
    06:00 +6°C° 0 mm 2 m/s 709 mmHg 64%
    07:00 +6°C° 0 mm 2 m/s 710 mmHg 62%
    08:00 +7°C° 0 mm 2 m/s 710 mmHg 61%
    09:00 +7°C° 0 mm 2 m/s 711 mmHg 60%
    10:00 +8°C° 0 mm 2 m/s 710 mmHg 61%
    11:00 +8°C° 0 mm 2 m/s 710 mmHg 61%
    12:00 +9°C° 0 mm 2 m/s 710 mmHg 62%
    13:00 +9°C° 0 mm 2 m/s 710 mmHg 67%
    14:00 +8°C° 0 mm 2 m/s 710 mmHg 72%
    15:00 +8°C° 0 mm 2 m/s 710 mmHg 76%
    16:00 +7°C° 0.1 mm 2 m/s 710 mmHg 81%
    17:00 +6°C° 0.1 mm 2 m/s 711 mmHg 85%
    18:00 +7°C° 0.1 mm 1 m/s 711 mmHg 89%
    19:00 +7°C° 0 mm 1 m/s 711 mmHg 89%
    20:00 +6°C° 0 mm 1 m/s 712 mmHg 89%
    21:00 +6°C° 0 mm 1 m/s 712 mmHg 89%
    22:00 +6°C° 0 mm 1 m/s 712 mmHg 89%
    23:00 +6°C° 0 mm 1 m/s 712 mmHg 88%

    29 Janvier, Mardi

    Heure Température Précipitation Vent Pression Humidité
    00:00 +6°C° 0 mm 1 m/s 712 mmHg 88%
    01:00 +6°C° 0 mm 1 m/s 711 mmHg 87%
    02:00 +5°C° 0 mm 1 m/s 711 mmHg 87%
    03:00 +5°C° 0 mm 1 m/s 711 mmHg 86%
    04:00 +5°C° 0 mm 1 m/s 711 mmHg 86%
    05:00 +5°C° 0 mm 1 m/s 711 mmHg 87%
    06:00 +5°C° 0 mm 1 m/s 711 mmHg 87%
    07:00 +5°C° 0 mm 1 m/s 712 mmHg 85%
    08:00 +5°C° 0 mm 1 m/s 712 mmHg 84%
    09:00 +6°C° 0 mm 1 m/s 713 mmHg 82%
    10:00 +6°C° 0 mm 1 m/s 713 mmHg 77%
    11:00 +7°C° 0 mm 1 m/s 713 mmHg 73%
    12:00 +8°C° 0 mm 1 m/s 713 mmHg 68%
    13:00 +8°C° 0 mm 1 m/s 713 mmHg 69%
    14:00 +8°C° 0 mm 1 m/s 713 mmHg 69%
    15:00 +8°C° 0 mm 1 m/s 713 mmHg 70%
    16:00 +7°C° 0 mm 1 m/s 714 mmHg 75%
    17:00 +7°C° 0 mm 1 m/s 714 mmHg 80%
    18:00 +5°C° 0 mm 0 m/s 715 mmHg 85%
    19:00 +5°C° 0 mm 0 m/s 715 mmHg 81%
    20:00 +6°C° 0 mm 1 m/s 715 mmHg 77%
    21:00 +6°C° 0 mm 1 m/s 716 mmHg 73%
    22:00 +6°C° 0 mm 1 m/s 716 mmHg 70%
    23:00 +6°C° 0 mm 1 m/s 716 mmHg 66%
    Voir plus